CW2059 Weather Reports


time (UTC)temp
C
wind
direction
speed
KPH
gust
KPH
rain 1hr
cm
rain 24hr
cm
rain mn
cm
humidity
%
barometer
mb
20260502151005 13 205 20.9 33.8 0.00 0.00 0.00 45 1010.5
20260502150105 13 209 17.7 33.8 0.00 0.00 0.00 47 1010.9
20260502140104 11 199 20.9 43.5 0.00 0.00 0.00 50 1011.6
20260502130104 7 255 6.4 16.1 0.00 0.00 0.00 57 1013.6
20260502123704 7 210 12.9 24.1 0.00 0.00 0.00 54 1013.3
20260502122825 7 205 12.9 27.4 0.00 0.00 0.00 55 1013.1
20260502121925 7 206 11.3 19.3 0.00 0.00 0.00 55 1013.3
20260502121005 7 203 11.3 17.7 0.00 0.00 0.00 55 1013.5
20260502120104 7 210 11.3 19.3 0.00 0.00 0.00 56 1013.6
20260502115504 7 213 9.7 17.7 0.00 0.00 0.00 56 1013.7
20260502114604 6 215 8.0 17.7 0.00 0.00 0.00 57 1013.7
20260502113725 6 219 9.7 19.3 0.00 0.00 0.00 57 1013.9
20260502112804 6 220 9.7 20.9 0.00 0.00 0.00 59 1013.9
20260502111904 5 229 6.4 14.5 0.00 0.00 0.00 60 1014.0
20260502111004 5 215 6.4 11.3 0.00 0.00 0.00 60 1014.1
20260502110104 5 224 6.4 11.3 0.00 0.00 0.00 60 1014.1
20260502105504 5 236 4.8 8.0 0.00 0.00 0.00 60 1014.1
20260502104604 5 230 6.4 8.0 0.00 0.00 0.00 60 1014.1
20260502103704 5 234 4.8 8.0 0.00 0.00 0.00 60 1014.1
20260502102804 5 233 4.8 9.7 0.00 0.00 0.00 60 1014.0
20260502101904 5 226 6.4 9.7 0.00 0.00 0.00 60 1014.1
20260502101004 5 229 6.4 9.7 0.00 0.00 0.00 60 1014.1
20260502100104 5 250 4.8 9.7 0.00 0.00 0.00 59 1014.1
20260502091004 5 214 3.2 8.0 0.00 0.00 0.00 59 1014.1
20260502090104 5 205 4.8 9.7 0.00 0.00 0.00 59 1014.2
20260502080104 6 234 4.8 9.7 0.00 0.00 0.00 57 1015.0
20260502071003 6 239 4.8 11.3 0.00 0.00 0.00 55 1015.5
20260502070124 6 247 4.8 11.3 0.00 0.00 0.00 54 1015.5
20260502065503 7 252 4.8 12.9 0.00 0.00 0.00 54 1015.5
20260502064604 7 249 6.4 11.3 0.00 0.00 0.00 54 1015.5
20260502063724 7 245 4.8 11.3 0.00 0.00 0.00 53 1015.5
20260502062804 7 242 6.4 12.9 0.00 0.00 0.00 53 1015.6
20260502061903 7 245 6.4 12.9 0.00 0.00 0.00 53 1015.7
20260502061003 7 244 6.4 14.5 0.00 0.00 0.00 52 1015.7
20260502055503 7 225 8.0 16.1 0.00 0.00 0.00 51 1015.7
20260502054604 7 224 8.0 12.9 0.00 0.00 0.00 51 1015.7
20260502053703 7 226 6.4 12.9 0.00 0.00 0.00 51 1015.8
20260502052803 7 216 6.4 12.9 0.00 0.00 0.00 51 1015.8
20260502051903 7 225 6.4 9.7 0.00 0.00 0.00 51 1015.9
20260502051024 8 235 6.4 9.7 0.00 0.00 0.00 50 1016.0
20260502045503 8 235 4.8 9.7 0.00 0.00 0.00 49 1016.0
20260502044603 8 237 3.2 9.7 0.00 0.00 0.00 49 1016.0
20260502043703 8 236 3.2 11.3 0.00 0.00 0.00 48 1016.1
20260502042803 8 221 4.8 11.3 0.00 0.00 0.00 47 1016.2
20260502041924 9 213 4.8 12.9 0.00 0.00 0.00 47 1016.2
20260502041024 9 206 6.4 14.5 0.00 0.00 0.00 46 1016.2
20260502040103 9 206 8.0 14.5 0.00 0.00 0.00 46 1016.2
20260502035503 9 204 6.4 14.5 0.00 0.00 0.00 46 1016.2
20260502034603 10 207 4.8 12.9 0.00 0.00 0.00 45 1016.2
20260502033703 10 211 4.8 11.3 0.00 0.00 0.00 45 1016.2
20260502032803 10 204 6.4 11.3 0.00 0.00 0.00 46 1016.2
20260502031924 10 202 6.4 12.9 0.00 0.00 0.00 46 1016.2
20260502031003 10 194 6.4 9.7 0.00 0.00 0.00 45 1016.2
20260502025524 10 189 6.4 11.3 0.00 0.00 0.00 44 1016.1
20260502024603 11 196 4.8 9.7 0.00 0.00 0.00 43 1016.1
20260502023703 11 196 4.8 9.7 0.00 0.00 0.00 42 1016.1
20260502022803 11 196 3.2 8.0 0.00 0.00 0.00 41 1016.0
20260502021903 11 213 4.8 6.4 0.00 0.00 0.00 40 1015.9
20260502021003 12 215 3.2 6.4 0.00 0.00 0.00 39 1016.0
20260502015503 13 205 4.8 8.0 0.00 0.00 0.00 39 1015.9
20260502014603 13 197 4.8 9.7 0.00 0.00 0.00 39 1015.9
20260502013703 14 209 4.8 9.7 0.00 0.00 0.00 38 1016.0
20260502012803 15 215 4.8 8.0 0.00 0.00 0.00 37 1016.0
20260502011903 15 231 4.8 9.7 0.00 0.00 0.00 38 1016.0
20260502011003 15 232 4.8 12.9 0.00 0.00 0.00 40 1016.0
20260502010104 15 233 3.2 12.9 0.00 0.00 0.00 38 1016.0
20260502005503 15 241 6.4 16.1 0.00 0.00 0.00 38 1016.1
20260502004603 15 240 8.0 12.9 0.00 0.00 0.00 35 1016.1
20260502003703 15 241 9.7 14.5 0.00 0.00 0.00 35 1016.1
20260502002824 16 253 8.0 14.5 0.00 0.00 0.00 34 1016.1
20260502001903 16 255 9.7 20.9 0.00 0.00 0.00 35 1016.2
20260502001003 16 242 12.9 20.9 0.00 0.00 0.00 36 1016.2
20260501235503 16 253 9.7 16.1 0.00 0.00 0.00 35 1016.3
20260501234603 16 307 12.9 20.9 0.00 0.00 0.00 35 1016.3
20260501233703 16 327 9.7 20.9 0.00 0.00 0.00 38 1016.3
20260501232803 16 303 11.3 20.9 0.00 0.00 0.00 36 1016.4
20260501231924 16 307 11.3 20.9 0.00 0.00 0.00 35 1016.4
20260501231024 16 317 11.3 20.9 0.00 0.00 0.00 36 1016.4
20260501225503 15 20 4.8 16.1 0.00 0.00 0.00 37 1016.4
20260501224602 15 314 9.7 29.0 0.00 0.00 0.00 36 1016.5
20260501223702 16 323 12.9 29.0 0.00 0.00 0.00 36 1016.5
20260501222823 17 28 8.0 22.5 0.00 0.00 0.00 37 1016.5
20260501221923 16 339 8.0 17.7 0.00 0.00 0.00 34 1016.5
20260501221003 16 346 9.7 20.9 0.00 0.00 0.00 38 1016.7
20260501215502 15 350 6.4 14.5 0.00 0.00 0.00 41 1016.8
20260501214602 16 345 11.3 24.1 0.00 0.00 0.00 38 1016.9
20260501213702 16 14 8.0 20.9 0.00 0.00 0.00 42 1017.0
20260501212802 16 11 11.3 25.7 0.00 0.00 0.00 38 1017.1
20260501211903 16 341 9.7 25.7 0.00 0.00 0.00 39 1017.0
20260501211002 15 323 9.7 17.7 0.00 0.00 0.00 39 1017.1
20260501205502 15 352 8.0 17.7 0.00 0.00 0.00 40 1017.4
20260501204623 15 334 9.7 22.5 0.00 0.00 0.00 42 1017.4
20260501203702 15 342 12.9 22.5 0.00 0.00 0.00 38 1017.5
20260501202803 15 1 11.3 20.9 0.00 0.00 0.00 40 1017.5
20260501201902 16 30 6.4 20.9 0.00 0.00 0.00 38 1017.5
20260501201002 15 348 12.9 22.5 0.00 0.00 0.00 43 1017.7
20260501195502 16 353 14.5 29.0 0.00 0.00 0.00 39 1017.5
20260501194602 16 11 9.7 24.1 0.00 0.00 0.00 38 1017.5
20260501193702 16 12 16.1 32.2 0.00 0.00 0.00 43 1017.7
20260501192802 16 28 16.1 32.2 0.00 0.00 0.00 40 1017.6
20260501191902 16 19 16.1 27.4 0.00 0.00 0.00 38 1017.6
20260501191002 16 358 17.7 30.6 0.00 0.00 0.00 39 1017.6
20260501185502 16 10 14.5 27.4 0.00 0.00 0.00 42 1017.6
20260501184623 16 13 16.1 27.4 0.00 0.00 0.00 46 1017.7
20260501183702 15 26 8.0 22.5 0.00 0.00 0.00 46 1017.7
20260501182823 15 11 12.9 25.7 0.00 0.00 0.00 41 1017.8
20260501181902 14 23 12.9 25.7 0.00 0.00 0.00 43 1017.8
20260501181002 13 11 11.3 27.4 0.00 0.00 0.00 46 1017.7
20260501175502 13 347 12.9 30.6 0.00 0.00 0.00 47 1017.8
20260501174602 13 351 9.7 27.4 0.00 0.00 0.00 48 1018.0
20260501173702 12 328 11.3 25.7 0.00 0.00 0.00 50 1018.1
20260501172802 12 338 9.7 20.9 0.00 0.00 0.00 45 1018.2
20260501171902 12 341 8.0 22.5 0.00 0.00 0.00 50 1018.2
20260501171002 12 330 12.9 20.9 0.00 0.00 0.00 45 1018.2
20260501165502 11 326 11.3 19.3 0.00 0.00 0.00 46 1018.2
20260501164602 11 333 9.7 19.3 0.00 0.00 0.00 48 1018.2
20260501163702 11 309 9.7 19.3 0.00 0.00 0.00 50 1018.3
20260501162823 11 334 11.3 20.9 0.00 0.00 0.00 48 1018.3
20260501161902 10 319 11.3 19.3 0.00 0.00 0.00 48 1018.2
20260501161002 10 315 8.0 19.3 0.00 0.00 0.00 48 1018.1
20260501155502 9 318 8.0 19.3 0.00 0.00 0.00 51 1018.2
20260501153702 8 320 8.0 14.5 0.00 0.00 0.00 53 1018.4
20260501152802 8 320 4.8 16.1 0.00 0.00 0.00 56 1018.5